Data supplied by UK-AIR on 12/6/2018
All Data GMT hour ending 
Status: R =Ratified P=Provisional,P*=As supplied
,,Christchurch Barrack Road,,,,,,,,,,,,,,,,,,,,,,,
Date,time,"Nitric oxide",status,unit,"Nitrogen dioxide",status,unit,"Nitrogen oxides as nitrogen dioxide",status,unit,"PM<sub>2.5</sub> particulate matter (Hourly measured)",status,unit
 
01-01-2017,01:00,0.23325,R,ugm-3,10.70681,R,ugm-3,11.06445,R,ugm-3,,,
01-01-2017,02:00,0.52511,R,ugm-3,8.32224,R,ugm-3,9.12741,R,ugm-3,,,
01-01-2017,03:00,0.42034,R,ugm-3,6.04876,R,ugm-3,6.69327,R,ugm-3,,,
01-01-2017,04:00,0.45527,R,ugm-3,3.00836,R,ugm-3,3.70643,R,ugm-3,,,
01-01-2017,05:00,0.28064,R,ugm-3,2.99976,R,ugm-3,3.43007,R,ugm-3,,,
01-01-2017,06:00,0.31526,R,ugm-3,3.16806,R,ugm-3,3.65144,R,ugm-3,,,
01-01-2017,07:00,0.42034,R,ugm-3,3.28328,R,ugm-3,3.92780,R,ugm-3,,,
01-01-2017,08:00,0.35049,R,ugm-3,4.60721,R,ugm-3,5.14463,R,ugm-3,,,
01-01-2017,09:00,0.45527,R,ugm-3,2.89792,R,ugm-3,3.59598,R,ugm-3,,,
01-01-2017,10:00,0.45527,R,ugm-3,3.11929,R,ugm-3,3.81735,R,ugm-3,,,
01-01-2017,11:00,0.63051,R,ugm-3,4.39923,R,ugm-3,5.36600,R,ugm-3,,,
01-01-2017,12:00,1.15594,R,ugm-3,5.41907,R,ugm-3,7.19148,R,ugm-3,,,
01-01-2017,13:00,1.19055,R,ugm-3,7.13649,R,ugm-3,8.96198,R,ugm-3,,,
01-01-2017,14:00,17.05371,R,ugm-3,42.55791,R,ugm-3,68.70656,R,ugm-3,,,
01-01-2017,15:00,7.87919,R,ugm-3,13.58640,R,ugm-3,25.66766,R,ugm-3,,,
01-01-2017,16:00,3.99230,R,ugm-3,9.69972,R,ugm-3,15.82116,R,ugm-3,,,
01-01-2017,17:00,4.20184,R,ugm-3,10.81662,R,ugm-3,17.25936,R,ugm-3,,,
01-01-2017,18:00,2.97637,R,ugm-3,8.16016,R,ugm-3,12.72386,R,ugm-3,,,
01-01-2017,19:00,1.92583,R,ugm-3,7.11498,R,ugm-3,10.06788,R,ugm-3,,,
01-01-2017,20:00,2.97637,R,ugm-3,7.99425,R,ugm-3,12.55795,R,ugm-3,,,
01-01-2017,21:00,5.11268,R,ugm-3,6.98588,R,ugm-3,14.82522,R,ugm-3,,,
01-01-2017,22:00,2.06615,R,ugm-3,6.34711,R,ugm-3,9.51517,R,ugm-3,,,
01-01-2017,23:00,2.13600,R,ugm-3,4.63542,R,ugm-3,7.91058,R,ugm-3,,,
01-01-2017,24:00,1.64581,R,ugm-3,4.22567,R,ugm-3,6.74921,R,ugm-3,,,
02-01-2017,01:00,0.60744,R,ugm-3,4.53199,R,ugm-3,5.46338,R,ugm-3,,,
02-01-2017,02:00,0.73591,R,ugm-3,4.57422,R,ugm-3,5.70260,R,ugm-3,,,
02-01-2017,03:00,0.94639,R,ugm-3,3.69782,R,ugm-3,5.14893,R,ugm-3,,,
02-01-2017,04:00,1.12132,R,ugm-3,5.20152,R,ugm-3,6.92086,R,ugm-3,,,
02-01-2017,05:00,1.29657,R,ugm-3,6.15060,R,ugm-3,8.13864,R,ugm-3,,,
02-01-2017,06:00,3.36459,R,ugm-3,10.01194,R,ugm-3,15.17091,R,ugm-3,,,
02-01-2017,07:00,13.94949,R,ugm-3,17.58926,R,ugm-3,38.97818,R,ugm-3,,,
02-01-2017,08:00,12.12687,R,ugm-3,20.05208,R,ugm-3,38.64637,R,ugm-3,,,
02-01-2017,09:00,24.84965,R,ugm-3,20.80848,R,ugm-3,58.91074,R,ugm-3,,,
02-01-2017,10:00,32.66585,R,ugm-3,25.87613,R,ugm-3,75.96307,R,ugm-3,,,
02-01-2017,11:00,34.59355,R,ugm-3,41.02599,R,ugm-3,94.06870,R,ugm-3,,,
02-01-2017,12:00,32.38552,R,ugm-3,39.64947,R,ugm-3,89.30658,R,ugm-3,,,
02-01-2017,13:00,51.59238,R,ugm-3,42.97674,R,ugm-3,122.08396,R,ugm-3,,,
02-01-2017,14:00,44.65241,R,ugm-3,43.54141,R,ugm-3,112.00748,R,ugm-3,,,
02-01-2017,15:00,44.61748,R,ugm-3,47.08240,R,ugm-3,115.49492,R,ugm-3,,,
02-01-2017,16:00,65.99745,R,ugm-3,57.98509,R,ugm-3,159.17977,R,ugm-3,,,
02-01-2017,17:00,53.20483,R,ugm-3,65.08763,R,ugm-3,146.66723,R,ugm-3,,,
02-01-2017,18:00,23.37752,R,ugm-3,48.47853,R,ugm-3,84.32356,R,ugm-3,,,
02-01-2017,19:00,37.67813,R,ugm-3,52.29683,R,ugm-3,110.06916,R,ugm-3,,,
02-01-2017,20:00,30.91308,R,ugm-3,57.29898,R,ugm-3,104.69838,R,ugm-3,,,
02-01-2017,21:00,19.76783,R,ugm-3,46.37239,R,ugm-3,76.68264,R,ugm-3,,,
02-01-2017,22:00,22.11619,R,ugm-3,47.86605,R,ugm-3,81.77707,R,ugm-3,,,
02-01-2017,23:00,39.14994,R,ugm-3,51.25835,R,ugm-3,111.28742,R,ugm-3,,,
02-01-2017,24:00,22.04603,R,ugm-3,46.97722,R,ugm-3,80.78065,R,ugm-3,,,
03-01-2017,01:00,6.96950,R,ugm-3,38.37368,R,ugm-3,49.06009,R,ugm-3,,,
03-01-2017,02:00,1.29782,R,ugm-3,20.17640,R,ugm-3,22.16635,R,ugm-3,,,
03-01-2017,03:00,2.84166,R,ugm-3,21.24453,R,ugm-3,25.60168,R,ugm-3,,,
03-01-2017,04:00,2.20990,R,ugm-3,20.49531,R,ugm-3,23.88378,R,ugm-3,,,
03-01-2017,05:00,22.69712,R,ugm-3,37.68055,R,ugm-3,72.48232,R,ugm-3,,,
03-01-2017,06:00,86.92901,R,ugm-3,65.98221,R,ugm-3,199.27150,R,ugm-3,,,
03-01-2017,07:00,158.52809,R,ugm-3,92.24131,R,ugm-3,335.31432,R,ugm-3,,,
03-01-2017,08:00,215.04263,R,ugm-3,96.41104,R,ugm-3,426.13847,R,ugm-3,,,
03-01-2017,09:00,126.57008,R,ugm-3,81.78328,R,ugm-3,275.85470,R,ugm-3,,,
03-01-2017,10:00,70.09078,R,ugm-3,59.43763,R,ugm-3,166.90866,R,ugm-3,,,
03-01-2017,11:00,49.04259,R,ugm-3,57.02214,R,ugm-3,132.21973,R,ugm-3,,,
03-01-2017,12:00,40.55284,R,ugm-3,58.34703,R,ugm-3,120.52718,R,ugm-3,,,
03-01-2017,13:00,26.62643,R,ugm-3,44.12424,R,ugm-3,84.95086,R,ugm-3,,,
03-01-2017,14:00,17.18904,R,ugm-3,34.93229,R,ugm-3,61.28845,R,ugm-3,,,
03-01-2017,15:00,6.38431,R,ugm-3,30.49720,R,ugm-3,40.28633,R,ugm-3,,,
03-01-2017,16:00,11.99716,R,ugm-3,43.77999,R,ugm-3,62.17538,R,ugm-3,,,
03-01-2017,17:00,4.98140,R,ugm-3,43.95308,R,ugm-3,51.59112,R,ugm-3,,,
03-01-2017,18:00,4.17440,R,ugm-3,46.74246,R,ugm-3,53.14312,R,ugm-3,,,
03-01-2017,19:00,1.54353,R,ugm-3,34.15199,R,ugm-3,36.51871,R,ugm-3,,,
03-01-2017,20:00,1.64893,R,ugm-3,21.41092,R,ugm-3,23.93924,R,ugm-3,,,
03-01-2017,21:00,5.71762,R,ugm-3,19.27274,R,ugm-3,28.03964,R,ugm-3,,,
03-01-2017,22:00,4.59568,R,ugm-3,17.61269,R,ugm-3,24.65930,R,ugm-3,,,
03-01-2017,23:00,3.22739,R,ugm-3,8.85009,R,ugm-3,13.79869,R,ugm-3,,,
03-01-2017,24:00,0.91209,R,ugm-3,6.47047,R,ugm-3,7.86898,R,ugm-3,,,
04-01-2017,01:00,0.70306,R,ugm-3,6.17483,R,ugm-3,7.25284,R,ugm-3,,,
04-01-2017,02:00,1.40571,R,ugm-3,16.49595,R,ugm-3,18.65134,R,ugm-3,,,
04-01-2017,03:00,1.33524,R,ugm-3,9.44393,R,ugm-3,11.49126,R,ugm-3,,,
04-01-2017,04:00,1.51110,R,ugm-3,8.50728,R,ugm-3,10.82427,R,ugm-3,,,
04-01-2017,05:00,2.17903,R,ugm-3,14.97727,R,ugm-3,18.31840,R,ugm-3,,,
04-01-2017,06:00,11.98344,R,ugm-3,31.19622,R,ugm-3,49.57057,R,ugm-3,,,
04-01-2017,07:00,24.88114,R,ugm-3,59.27029,R,ugm-3,97.42084,R,ugm-3,,,
04-01-2017,08:00,42.31185,R,ugm-3,69.90235,R,ugm-3,134.77961,R,ugm-3,,,
04-01-2017,09:00,33.38586,R,ugm-3,60.32981,R,ugm-3,111.52074,R,ugm-3,,,
04-01-2017,10:00,22.25682,R,ugm-3,46.10464,R,ugm-3,80.23129,R,ugm-3,,,
04-01-2017,11:00,24.67035,R,ugm-3,46.10416,R,ugm-3,83.93150,R,ugm-3,,,
04-01-2017,12:00,19.08276,R,ugm-3,35.35400,R,ugm-3,64.61381,R,ugm-3,,,
04-01-2017,13:00,23.43989,R,ugm-3,38.83140,R,ugm-3,74.77206,R,ugm-3,,,
04-01-2017,14:00,25.79479,R,ugm-3,42.04823,R,ugm-3,81.59968,R,ugm-3,,,
04-01-2017,15:00,34.58015,R,ugm-3,45.84119,R,ugm-3,98.86334,R,ugm-3,,,
04-01-2017,16:00,50.60546,R,ugm-3,68.73143,R,ugm-3,146.32538,R,ugm-3,,,
04-01-2017,17:00,105.53343,R,ugm-3,95.36347,R,ugm-3,257.17913,R,ugm-3,,,
04-01-2017,18:00,43.15502,R,ugm-3,58.94947,R,ugm-3,125.11958,R,ugm-3,,,
04-01-2017,19:00,31.48747,R,ugm-3,55.46872,R,ugm-3,103.74882,R,ugm-3,,,
04-01-2017,20:00,12.58120,R,ugm-3,38.32889,R,ugm-3,57.61980,R,ugm-3,,,
04-01-2017,21:00,26.60304,R,ugm-3,54.02048,R,ugm-3,94.81123,R,ugm-3,,,
04-01-2017,22:00,30.96048,R,ugm-3,56.88731,R,ugm-3,104.35939,R,ugm-3,,,
04-01-2017,23:00,14.86563,R,ugm-3,42.54165,R,ugm-3,65.33530,R,ugm-3,,,
04-01-2017,24:00,13.67041,R,ugm-3,38.54596,R,ugm-3,59.50696,R,ugm-3,,,
05-01-2017,01:00,3.28289,R,ugm-3,23.93048,R,ugm-3,28.96418,R,ugm-3,,,
05-01-2017,02:00,3.84584,R,ugm-3,19.36406,R,ugm-3,25.26094,R,ugm-3,,,
05-01-2017,03:00,2.42693,R,ugm-3,18.11281,R,ugm-3,21.83406,R,ugm-3,,,
05-01-2017,04:00,4.00976,R,ugm-3,20.90888,R,ugm-3,27.05709,R,ugm-3,,,
05-01-2017,05:00,11.07977,R,ugm-3,28.34660,R,ugm-3,45.33533,R,ugm-3,,,
05-01-2017,06:00,48.39929,R,ugm-3,53.68340,R,ugm-3,127.89461,R,ugm-3,,,
05-01-2017,07:00,88.56797,R,ugm-3,69.59635,R,ugm-3,205.39868,R,ugm-3,,,
05-01-2017,08:00,153.49898,R,ugm-3,85.76415,R,ugm-3,321.12596,R,ugm-3,,,
05-01-2017,09:00,109.17960,R,ugm-3,77.60447,R,ugm-3,245.01085,R,ugm-3,,,
05-01-2017,10:00,92.78883,R,ugm-3,71.56862,R,ugm-3,213.84284,R,ugm-3,,,
05-01-2017,11:00,74.11145,R,ugm-3,64.31642,R,ugm-3,177.95239,R,ugm-3,,,
05-01-2017,12:00,63.91103,R,ugm-3,63.67860,R,ugm-3,161.67414,R,ugm-3,,,
05-01-2017,13:00,59.79587,R,ugm-3,70.15576,R,ugm-3,161.84149,R,ugm-3,,,
05-01-2017,14:00,80.61861,R,ugm-3,81.67379,R,ugm-3,205.28727,R,ugm-3,,,
05-01-2017,15:00,75.87014,R,ugm-3,83.78806,R,ugm-3,200.12065,R,ugm-3,,,
05-01-2017,16:00,274.84817,R,ugm-3,140.04233,R,ugm-3,561.47032,R,ugm-3,,,
05-01-2017,17:00,281.81309,R,ugm-3,138.02991,R,ugm-3,570.13729,R,ugm-3,,,
05-01-2017,18:00,174.39187,R,ugm-3,110.17578,R,ugm-3,377.57292,R,ugm-3,,,
05-01-2017,19:00,124.09325,R,ugm-3,80.79500,R,ugm-3,271.06867,R,ugm-3,,,
05-01-2017,20:00,140.51926,R,ugm-3,91.22051,R,ugm-3,306.68037,R,ugm-3,,,
05-01-2017,21:00,122.58059,R,ugm-3,82.16961,R,ugm-3,270.12389,R,ugm-3,,,
05-01-2017,22:00,145.90105,R,ugm-3,79.19041,R,ugm-3,302.90223,R,ugm-3,,,
05-01-2017,23:00,108.54659,R,ugm-3,61.18566,R,ugm-3,227.62145,R,ugm-3,,,
05-01-2017,24:00,85.29692,R,ugm-3,50.27723,R,ugm-3,181.06403,R,ugm-3,,,
06-01-2017,01:00,68.53248,R,ugm-3,48.24218,R,ugm-3,153.32385,R,ugm-3,,,
06-01-2017,02:00,64.24905,R,ugm-3,42.55886,R,ugm-3,141.07269,R,ugm-3,,,
06-01-2017,03:00,63.79160,R,ugm-3,42.75920,R,ugm-3,140.57162,R,ugm-3,,,
06-01-2017,04:00,49.56864,R,ugm-3,40.82375,R,ugm-3,116.82793,R,ugm-3,,,
06-01-2017,05:00,51.22318,R,ugm-3,43.34681,R,ugm-3,121.88793,R,ugm-3,,,
06-01-2017,06:00,100.58071,R,ugm-3,53.13355,R,ugm-3,207.35516,R,ugm-3,,,
06-01-2017,07:00,153.14194,R,ugm-3,66.79215,R,ugm-3,301.60651,R,ugm-3,,,
06-01-2017,08:00,170.99080,R,ugm-3,71.06372,R,ugm-3,333.24595,R,ugm-3,,,
06-01-2017,09:00,1.12631,R,ugm-3,12.34136,R,ugm-3,14.06835,R,ugm-3,,,
06-01-2017,10:00,1.02060,R,ugm-3,10.27873,R,ugm-3,11.84363,R,ugm-3,,,
06-01-2017,11:00,0.84473,R,ugm-3,10.04828,R,ugm-3,11.34352,R,ugm-3,,,
06-01-2017,12:00,0.98537,R,ugm-3,6.77408,R,ugm-3,8.28495,R,ugm-3,,,
06-01-2017,13:00,0.77395,R,ugm-3,8.48911,R,ugm-3,9.67582,R,ugm-3,,,
06-01-2017,14:00,0.59839,R,ugm-3,7.47835,R,ugm-3,8.39588,R,ugm-3,,,
06-01-2017,15:00,1.16155,R,ugm-3,12.17641,R,ugm-3,13.95743,R,ugm-3,,,
06-01-2017,16:00,1.02060,R,ugm-3,17.84123,R,ugm-3,19.40614,R,ugm-3,,,
06-01-2017,17:00,0.73871,R,ugm-3,14.88164,R,ugm-3,16.01432,R,ugm-3,,,
06-01-2017,18:00,0.49331,R,ugm-3,12.14438,R,ugm-3,12.90077,R,ugm-3,,,
06-01-2017,19:00,0.66887,R,ugm-3,8.48337,R,ugm-3,9.50895,R,ugm-3,,,
06-01-2017,20:00,0.49300,R,ugm-3,6.52832,R,ugm-3,7.28423,R,ugm-3,,,
06-01-2017,21:00,0.24665,R,ugm-3,7.62896,R,ugm-3,8.00716,R,ugm-3,,,
06-01-2017,22:00,0.28189,R,ugm-3,6.24049,R,ugm-3,6.67271,R,ugm-3,,,
06-01-2017,23:00,0.21142,R,ugm-3,5.06956,R,ugm-3,5.39373,R,ugm-3,,,
06-01-2017,24:00,0.38760,R,ugm-3,4.13243,R,ugm-3,4.72674,R,ugm-3,,,
07-01-2017,01:00,0.37585,R,ugm-3,3.35644,R,ugm-3,3.93274,R,ugm-3,,,
07-01-2017,02:00,0.45807,R,ugm-3,4.36193,R,ugm-3,5.06430,R,ugm-3,,,
07-01-2017,03:00,0.38760,R,ugm-3,4.19220,R,ugm-3,4.78651,R,ugm-3,,,
07-01-2017,04:00,0.45807,R,ugm-3,4.25053,R,ugm-3,4.95290,R,ugm-3,,,
07-01-2017,05:00,0.45807,R,ugm-3,5.86468,R,ugm-3,6.56705,R,ugm-3,,,
07-01-2017,06:00,1.86877,R,ugm-3,11.10302,R,ugm-3,13.96842,R,ugm-3,,,
07-01-2017,07:00,5.85420,R,ugm-3,21.85605,R,ugm-3,30.83237,R,ugm-3,,,
07-01-2017,08:00,13.01371,R,ugm-3,34.41974,R,ugm-3,54.37381,R,ugm-3,,,
07-01-2017,09:00,36.88983,R,ugm-3,54.29874,R,ugm-3,110.86237,R,ugm-3,,,
07-01-2017,10:00,24.08786,R,ugm-3,45.09962,R,ugm-3,82.03382,R,ugm-3,,,
07-01-2017,11:00,27.50858,R,ugm-3,43.91722,R,ugm-3,86.09645,R,ugm-3,,,
07-01-2017,12:00,26.73245,R,ugm-3,34.19933,R,ugm-3,75.18850,R,ugm-3,,,
07-01-2017,13:00,30.75312,R,ugm-3,47.90287,R,ugm-3,95.05699,R,ugm-3,,,
07-01-2017,14:00,37.80691,R,ugm-3,53.83831,R,ugm-3,111.80810,R,ugm-3,,,
07-01-2017,15:00,37.77167,R,ugm-3,52.61288,R,ugm-3,110.52863,R,ugm-3,,,
07-01-2017,16:00,32.55172,R,ugm-3,53.99418,R,ugm-3,103.90613,R,ugm-3,,,
07-01-2017,17:00,28.74278,R,ugm-3,51.70874,R,ugm-3,95.78039,R,ugm-3,,,
07-01-2017,18:00,24.15833,R,ugm-3,46.71664,R,ugm-3,83.75889,R,ugm-3,,,
07-01-2017,19:00,33.85671,R,ugm-3,52.82755,R,ugm-3,104.74045,R,ugm-3,,,
07-01-2017,20:00,28.91959,R,ugm-3,59.84117,R,ugm-3,104.18392,R,ugm-3,,,
07-01-2017,21:00,7.54741,R,ugm-3,38.51584,R,ugm-3,50.08838,R,ugm-3,,,
07-01-2017,22:00,6.55955,R,ugm-3,34.57657,R,ugm-3,44.63440,R,ugm-3,,,
07-01-2017,23:00,12.55532,R,ugm-3,37.73793,R,ugm-3,56.98915,R,ugm-3,,,
07-01-2017,24:00,17.77465,R,ugm-3,38.30642,R,ugm-3,65.56050,R,ugm-3,,,
08-01-2017,01:00,14.30778,R,ugm-3,35.24865,R,ugm-3,57.18694,R,ugm-3,,,
08-01-2017,02:00,16.66102,R,ugm-3,32.01143,R,ugm-3,57.55796,R,ugm-3,,,
08-01-2017,03:00,1.58844,R,ugm-3,15.77860,R,ugm-3,18.21417,R,ugm-3,,,
08-01-2017,04:00,6.38898,R,ugm-3,22.62201,R,ugm-3,32.41831,R,ugm-3,,,
08-01-2017,05:00,15.14285,R,ugm-3,32.42692,R,ugm-3,55.64562,R,ugm-3,,,
08-01-2017,06:00,32.19250,R,ugm-3,41.65473,R,ugm-3,91.01588,R,ugm-3,,,
08-01-2017,07:00,15.00190,R,ugm-3,37.82351,R,ugm-3,60.82611,R,ugm-3,,,
08-01-2017,08:00,121.46239,R,ugm-3,73.55236,R,ugm-3,259.79209,R,ugm-3,,,
08-01-2017,09:00,116.41456,R,ugm-3,77.50454,R,ugm-3,256.00438,R,ugm-3,,,
08-01-2017,10:00,66.39690,R,ugm-3,62.95854,R,ugm-3,164.76570,R,ugm-3,,,
08-01-2017,11:00,28.02746,R,ugm-3,36.95667,R,ugm-3,79.93150,R,ugm-3,,,
08-01-2017,12:00,23.79131,R,ugm-3,31.36452,R,ugm-3,67.84403,R,ugm-3,,,
08-01-2017,13:00,31.27449,R,ugm-3,47.96407,R,ugm-3,95.91761,R,ugm-3,,,
08-01-2017,14:00,33.42764,R,ugm-3,54.63343,R,ugm-3,105.88843,R,ugm-3,,,
08-01-2017,15:00,38.86400,R,ugm-3,57.93967,R,ugm-3,117.53030,R,ugm-3,,,
08-01-2017,16:00,44.26418,R,ugm-3,57.29037,R,ugm-3,125.16117,R,ugm-3,,,
08-01-2017,17:00,10.44832,R,ugm-3,42.41064,R,ugm-3,58.43118,R,ugm-3,,,
08-01-2017,18:00,33.99236,R,ugm-3,67.63795,R,ugm-3,119.75884,R,ugm-3,,,
08-01-2017,19:00,26.01494,R,ugm-3,58.31308,R,ugm-3,98.20209,R,ugm-3,,,
08-01-2017,20:00,13.27221,R,ugm-3,44.43072,R,ugm-3,64.78116,R,ugm-3,,,
08-01-2017,21:00,12.17801,R,ugm-3,35.24642,R,ugm-3,53.91911,R,ugm-3,,,
08-01-2017,22:00,46.17037,R,ugm-3,48.51869,R,ugm-3,119.31227,R,ugm-3,,,
08-01-2017,23:00,30.39202,R,ugm-3,43.63560,R,ugm-3,90.23605,R,ugm-3,,,
08-01-2017,24:00,24.99122,R,ugm-3,42.44794,R,ugm-3,80.76727,R,ugm-3,,,
09-01-2017,01:00,4.52229,R,ugm-3,26.58949,R,ugm-3,33.52358,R,ugm-3,,,
09-01-2017,02:00,2.54408,R,ugm-3,11.33730,R,ugm-3,15.23816,R,ugm-3,,,
09-01-2017,03:00,0.56534,R,ugm-3,6.32416,R,ugm-3,7.19100,R,ugm-3,,,
09-01-2017,04:00,0.31837,R,ugm-3,6.31364,R,ugm-3,6.80181,R,ugm-3,,,
09-01-2017,05:00,0.56503,R,ugm-3,4.65311,R,ugm-3,5.51948,R,ugm-3,,,
09-01-2017,06:00,0.35361,R,ugm-3,8.60051,R,ugm-3,9.14271,R,ugm-3,,,
09-01-2017,07:00,0.56503,R,ugm-3,7.77431,R,ugm-3,8.64068,R,ugm-3,,,
09-01-2017,08:00,0.81230,R,ugm-3,11.40950,R,ugm-3,12.65501,R,ugm-3,,,
09-01-2017,09:00,0.60058,R,ugm-3,8.89121,R,ugm-3,9.81208,R,ugm-3,,,
09-01-2017,10:00,0.60026,R,ugm-3,6.99640,R,ugm-3,7.91679,R,ugm-3,,,
09-01-2017,11:00,0.56503,R,ugm-3,6.82715,R,ugm-3,7.69351,R,ugm-3,,,
09-01-2017,12:00,0.56503,R,ugm-3,7.60793,R,ugm-3,8.47429,R,ugm-3,,,
09-01-2017,13:00,0.60026,R,ugm-3,5.82548,R,ugm-3,6.74587,R,ugm-3,,,
09-01-2017,14:00,0.56503,R,ugm-3,5.26607,R,ugm-3,6.13243,R,ugm-3,,,
09-01-2017,15:00,0.42408,R,ugm-3,7.43341,R,ugm-3,8.08366,R,ugm-3,,,
09-01-2017,16:00,7.77255,R,ugm-3,18.46614,R,ugm-3,30.38389,R,ugm-3,,,
09-01-2017,17:00,11.65851,R,ugm-3,23.26700,R,ugm-3,41.14313,R,ugm-3,,,
09-01-2017,18:00,12.96600,R,ugm-3,39.32530,R,ugm-3,59.20622,R,ugm-3,,,
09-01-2017,19:00,4.02722,R,ugm-3,34.18785,R,ugm-3,40.36283,R,ugm-3,,,
09-01-2017,20:00,1.20115,R,ugm-3,36.01190,R,ugm-3,37.85363,R,ugm-3,,,
09-01-2017,21:00,0.28251,R,ugm-3,14.95384,R,ugm-3,15.38702,R,ugm-3,,,
09-01-2017,22:00,0.91833,R,ugm-3,11.07959,R,ugm-3,12.48767,R,ugm-3,,,
09-01-2017,23:00,0.98911,R,ugm-3,8.96437,R,ugm-3,10.48098,R,ugm-3,,,
09-01-2017,24:00,0.67136,R,ugm-3,6.32894,R,ugm-3,7.35834,R,ugm-3,,,
10-01-2017,01:00,0.37710,R,ugm-3,4.63016,R,ugm-3,5.20837,R,ugm-3,,,
10-01-2017,02:00,0.21235,R,ugm-3,3.74707,R,ugm-3,4.07267,R,ugm-3,,,
10-01-2017,03:00,0.35392,R,ugm-3,3.41907,R,ugm-3,3.96174,R,ugm-3,,,
10-01-2017,04:00,0.42439,R,ugm-3,3.92493,R,ugm-3,4.57566,R,ugm-3,,,
10-01-2017,05:00,0.38916,R,ugm-3,7.15897,R,ugm-3,7.75567,R,ugm-3,,,
10-01-2017,06:00,10.40560,R,ugm-3,30.97055,R,ugm-3,46.92558,R,ugm-3,,,
10-01-2017,07:00,16.77587,R,ugm-3,45.41901,R,ugm-3,71.14165,R,ugm-3,,,
10-01-2017,08:00,12.63484,R,ugm-3,48.81083,R,ugm-3,68.18397,R,ugm-3,,,
10-01-2017,09:00,8.60045,R,ugm-3,40.65688,R,ugm-3,53.84405,R,ugm-3,,,
10-01-2017,10:00,21.87234,R,ugm-3,41.90048,R,ugm-3,75.43761,R,ugm-3,,,
10-01-2017,11:00,22.33228,R,ugm-3,45.99419,R,ugm-3,80.23655,R,ugm-3,,,
10-01-2017,12:00,17.44786,R,ugm-3,36.13047,R,ugm-3,62.88348,R,ugm-3,,,
10-01-2017,13:00,15.82013,R,ugm-3,31.09390,R,ugm-3,55.35110,R,ugm-3,,,
10-01-2017,14:00,16.98823,R,ugm-3,36.22132,R,ugm-3,62.26957,R,ugm-3,,,
10-01-2017,15:00,30.79116,R,ugm-3,47.58683,R,ugm-3,94.79928,R,ugm-3,,,
10-01-2017,16:00,16.10358,R,ugm-3,45.72405,R,ugm-3,70.41586,R,ugm-3,,,
10-01-2017,17:00,8.31700,R,ugm-3,54.65064,R,ugm-3,67.40319,R,ugm-3,,,
10-01-2017,18:00,1.16779,R,ugm-3,15.56201,R,ugm-3,17.35259,R,ugm-3,,,
10-01-2017,19:00,0.67261,R,ugm-3,13.30861,R,ugm-3,14.33993,R,ugm-3,,,
10-01-2017,20:00,0.70784,R,ugm-3,13.53381,R,ugm-3,14.61915,R,ugm-3,,,
10-01-2017,21:00,0.60182,R,ugm-3,19.05280,R,ugm-3,19.97558,R,ugm-3,,,
10-01-2017,22:00,0.77894,R,ugm-3,17.60887,R,ugm-3,18.80322,R,ugm-3,,,
10-01-2017,23:00,0.45994,R,ugm-3,11.01218,R,ugm-3,11.71741,R,ugm-3,,,
10-01-2017,24:00,0.38885,R,ugm-3,8.05258,R,ugm-3,8.64880,R,ugm-3,,,
11-01-2017,01:00,0.37793,R,ugm-3,3.88811,R,ugm-3,4.46760,R,ugm-3,,,
11-01-2017,02:00,0.28355,R,ugm-3,3.51135,R,ugm-3,3.94612,R,ugm-3,,,
11-01-2017,03:00,0.35423,R,ugm-3,3.75663,R,ugm-3,4.29978,R,ugm-3,,,
11-01-2017,04:00,0.31869,R,ugm-3,2.80612,R,ugm-3,3.29476,R,ugm-3,,,
11-01-2017,05:00,0.53104,R,ugm-3,3.20631,R,ugm-3,4.02055,R,ugm-3,,,
11-01-2017,06:00,3.96704,R,ugm-3,11.22924,R,ugm-3,17.31195,R,ugm-3,,,
11-01-2017,07:00,12.07948,R,ugm-3,31.18044,R,ugm-3,49.70205,R,ugm-3,,,
11-01-2017,08:00,15.30281,R,ugm-3,32.60430,R,ugm-3,56.06828,R,ugm-3,,,
11-01-2017,09:00,14.70099,R,ugm-3,28.05398,R,ugm-3,50.59519,R,ugm-3,,,
11-01-2017,10:00,10.76857,R,ugm-3,21.74226,R,ugm-3,38.25383,R,ugm-3,,,
11-01-2017,11:00,12.71716,R,ugm-3,22.71954,R,ugm-3,42.21892,R,ugm-3,,,
11-01-2017,12:00,8.85583,R,ugm-3,15.07002,R,ugm-3,28.64877,R,ugm-3,,,
11-01-2017,13:00,9.77665,R,ugm-3,21.58782,R,ugm-3,36.57848,R,ugm-3,,,
11-01-2017,14:00,10.06010,R,ugm-3,21.93494,R,ugm-3,37.36021,R,ugm-3,,,
11-01-2017,15:00,11.51258,R,ugm-3,27.86130,R,ugm-3,45.51368,R,ugm-3,,,
11-01-2017,16:00,15.12570,R,ugm-3,39.35399,R,ugm-3,62.54640,R,ugm-3,,,
11-01-2017,17:00,16.18840,R,ugm-3,50.28967,R,ugm-3,75.11153,R,ugm-3,,,
11-01-2017,18:00,11.12311,R,ugm-3,40.74438,R,ugm-3,57.79958,R,ugm-3,,,
11-01-2017,19:00,3.36553,R,ugm-3,20.13719,R,ugm-3,25.29759,R,ugm-3,,,
11-01-2017,20:00,0.49580,R,ugm-3,17.05424,R,ugm-3,17.81446,R,ugm-3,,,
11-01-2017,21:00,0.31900,R,ugm-3,11.51755,R,ugm-3,12.00668,R,ugm-3,,,
11-01-2017,22:00,0.42502,R,ugm-3,10.07027,R,ugm-3,10.72195,R,ugm-3,,,
11-01-2017,23:00,0.77925,R,ugm-3,7.07051,R,ugm-3,8.26535,R,ugm-3,,,
11-01-2017,24:00,0.85035,R,ugm-3,6.06788,R,ugm-3,7.37173,R,ugm-3,,,
12-01-2017,01:00,0.56752,R,ugm-3,3.22830,R,ugm-3,4.09849,R,ugm-3,,,
12-01-2017,02:00,0.31962,R,ugm-3,2.64021,R,ugm-3,3.13028,R,ugm-3,,,
12-01-2017,03:00,0.24853,R,ugm-3,1.63088,R,ugm-3,2.01195,R,ugm-3,,,
12-01-2017,04:00,0.53197,R,ugm-3,1.58785,R,ugm-3,2.40353,R,ugm-3,,,
12-01-2017,05:00,0.49643,R,ugm-3,3.48697,R,ugm-3,4.24814,R,ugm-3,,,
12-01-2017,06:00,0.42595,R,ugm-3,5.83073,R,ugm-3,6.48385,R,ugm-3,,,
12-01-2017,07:00,0.60307,R,ugm-3,10.19841,R,ugm-3,11.12310,R,ugm-3,,,
12-01-2017,08:00,0.99347,R,ugm-3,13.06477,R,ugm-3,14.58807,R,ugm-3,,,
12-01-2017,09:00,0.99410,R,ugm-3,13.56632,R,ugm-3,15.09058,R,ugm-3,,,
12-01-2017,10:00,0.99379,R,ugm-3,10.60481,R,ugm-3,12.12860,R,ugm-3,,,
12-01-2017,11:00,1.34864,R,ugm-3,8.99879,R,ugm-3,11.06668,R,ugm-3,,,
12-01-2017,12:00,11.24878,R,ugm-3,22.65978,R,ugm-3,39.90766,R,ugm-3,,,
12-01-2017,13:00,0.88714,R,ugm-3,12.55700,R,ugm-3,13.91726,R,ugm-3,,,
12-01-2017,14:00,22.14301,R,ugm-3,42.17349,R,ugm-3,76.12563,R,ugm-3,,,
12-01-2017,15:00,27.14655,R,ugm-3,39.92344,R,ugm-3,81.54757,R,ugm-3,,,
12-01-2017,16:00,16.35896,R,ugm-3,29.74750,R,ugm-3,54.83090,R,ugm-3,,,
12-01-2017,17:00,9.01361,R,ugm-3,15.52328,R,ugm-3,29.34397,R,ugm-3,,,
12-01-2017,18:00,10.29085,R,ugm-3,21.78051,R,ugm-3,37.55959,R,ugm-3,,,
12-01-2017,19:00,6.84830,R,ugm-3,20.40829,R,ugm-3,30.90887,R,ugm-3,,,
12-01-2017,20:00,3.72569,R,ugm-3,17.31530,R,ugm-3,23.02793,R,ugm-3,,,
12-01-2017,21:00,3.12293,R,ugm-3,22.76688,R,ugm-3,27.55530,R,ugm-3,,,
12-01-2017,22:00,3.83264,R,ugm-3,15.53046,R,ugm-3,21.40709,R,ugm-3,,,
12-01-2017,23:00,1.70319,R,ugm-3,7.89671,R,ugm-3,10.50823,R,ugm-3,,,
12-01-2017,24:00,1.09981,R,ugm-3,5.91488,R,ugm-3,7.60123,R,ugm-3,,,
13-01-2017,01:00,0.94712,R,ugm-3,4.06725,R,ugm-3,5.51948,R,ugm-3,,,
13-01-2017,02:00,1.27848,R,ugm-3,6.31890,R,ugm-3,8.27921,R,ugm-3,,,
13-01-2017,03:00,1.49208,R,ugm-3,8.00525,R,ugm-3,10.29308,R,ugm-3,,,
13-01-2017,04:00,0.99441,R,ugm-3,4.74061,R,ugm-3,6.26535,R,ugm-3,,,
13-01-2017,05:00,1.27879,R,ugm-3,6.48624,R,ugm-3,8.44703,R,ugm-3,,,
13-01-2017,06:00,6.03787,R,ugm-3,15.24406,R,ugm-3,24.50199,R,ugm-3,,,
13-01-2017,07:00,12.99905,R,ugm-3,24.09368,R,ugm-3,44.02527,R,ugm-3,,,
13-01-2017,08:00,24.36476,R,ugm-3,51.86652,R,ugm-3,89.22530,R,ugm-3,,,
13-01-2017,09:00,14.45527,R,ugm-3,27.11925,R,ugm-3,49.28369,R,ugm-3,,,
13-01-2017,10:00,11.68502,R,ugm-3,22.30453,R,ugm-3,40.22131,R,ugm-3,,,
13-01-2017,11:00,10.58396,R,ugm-3,11.85368,R,ugm-3,28.08219,R,ugm-3,,,
13-01-2017,12:00,10.26466,R,ugm-3,18.16110,R,ugm-3,33.90002,R,ugm-3,,,
13-01-2017,13:00,10.01551,R,ugm-3,15.01886,R,ugm-3,30.37576,R,ugm-3,,,
13-01-2017,14:00,10.51287,R,ugm-3,17.94833,R,ugm-3,34.06784,R,ugm-3,,,
13-01-2017,15:00,11.64947,R,ugm-3,24.70854,R,ugm-3,42.57082,R,ugm-3,,,
13-01-2017,16:00,11.96909,R,ugm-3,27.63084,R,ugm-3,45.98319,R,ugm-3,,,
13-01-2017,17:00,15.13006,R,ugm-3,24.07073,R,ugm-3,47.26983,R,ugm-3,,,
13-01-2017,18:00,9.90918,R,ugm-3,25.53092,R,ugm-3,40.72478,R,ugm-3,,,
13-01-2017,19:00,7.95559,R,ugm-3,25.72934,R,ugm-3,37.92774,R,ugm-3,,,
13-01-2017,20:00,7.49409,R,ugm-3,29.28994,R,ugm-3,40.78072,R,ugm-3,,,
13-01-2017,21:00,6.25116,R,ugm-3,20.90267,R,ugm-3,30.48764,R,ugm-3,,,
13-01-2017,22:00,6.18006,R,ugm-3,18.60623,R,ugm-3,28.08219,R,ugm-3,,,
13-01-2017,23:00,4.68798,R,ugm-3,11.27228,R,ugm-3,18.46041,R,ugm-3,,,
13-01-2017,24:00,3.62247,R,ugm-3,11.05999,R,ugm-3,16.61437,R,ugm-3,,,
14-01-2017,01:00,3.69700,R,ugm-3,12.02389,R,ugm-3,17.69254,R,ugm-3,,,
14-01-2017,02:00,1.24418,R,ugm-3,10.12956,R,ugm-3,12.03728,R,ugm-3,,,
14-01-2017,03:00,1.91960,R,ugm-3,16.59668,R,ugm-3,19.54001,R,ugm-3,,,
14-01-2017,04:00,1.38637,R,ugm-3,19.93351,R,ugm-3,22.05925,R,ugm-3,,,
14-01-2017,05:00,2.06179,R,ugm-3,12.23570,R,ugm-3,15.39706,R,ugm-3,,,
14-01-2017,06:00,2.98604,R,ugm-3,12.77789,R,ugm-3,17.35642,R,ugm-3,,,
14-01-2017,07:00,6.36310,R,ugm-3,20.53356,R,ugm-3,30.29018,R,ugm-3,,,
14-01-2017,08:00,12.40627,R,ugm-3,29.23878,R,ugm-3,48.26146,R,ugm-3,,,
14-01-2017,09:00,13.43716,R,ugm-3,29.33823,R,ugm-3,49.94159,R,ugm-3,,,
14-01-2017,10:00,14.93018,R,ugm-3,28.61674,R,ugm-3,51.50936,R,ugm-3,,,
14-01-2017,11:00,13.50826,R,ugm-3,21.33489,R,ugm-3,42.04727,R,ugm-3,,,
14-01-2017,12:00,14.75244,R,ugm-3,27.26556,R,ugm-3,49.88565,R,ugm-3,,,
14-01-2017,13:00,13.18833,R,ugm-3,25.46446,R,ugm-3,45.68628,R,ugm-3,,,
14-01-2017,14:00,14.53915,R,ugm-3,26.75301,R,ugm-3,49.04606,R,ugm-3,,,
14-01-2017,15:00,15.10792,R,ugm-3,24.59284,R,ugm-3,47.75799,R,ugm-3,,,
14-01-2017,16:00,10.62887,R,ugm-3,26.08602,R,ugm-3,42.38339,R,ugm-3,,,
14-01-2017,17:00,13.04613,R,ugm-3,30.77834,R,ugm-3,50.78213,R,ugm-3,,,
14-01-2017,18:00,16.60094,R,ugm-3,42.68318,R,ugm-3,68.13759,R,ugm-3,,,
14-01-2017,19:00,10.27339,R,ugm-3,36.54070,R,ugm-3,52.29301,R,ugm-3,,,
14-01-2017,20:00,8.78037,R,ugm-3,28.08076,R,ugm-3,41.54380,R,ugm-3,,,
14-01-2017,21:00,6.18536,R,ugm-3,30.32364,R,ugm-3,39.80773,R,ugm-3,,,
14-01-2017,22:00,8.95811,R,ugm-3,35.64613,R,ugm-3,49.38171,R,ugm-3,,,
14-01-2017,23:00,7.82057,R,ugm-3,28.09606,R,ugm-3,40.08743,R,ugm-3,,,
14-01-2017,24:00,4.51460,R,ugm-3,23.59117,R,ugm-3,30.51346,R,ugm-3,,,